Location: Barcelona
(41.3830°N, 2.1830°E)
Time: 04:34:11
(UTC+02:00)

ISS - Visible Passes

Search period start: 17 October 2019 00:00
Search period end: 27 October 2019 00:00
Orbit: 411 x 421 km, 51.6° (Epoch: 16 October)

Date Brightness Start Highest point End Pass type
(mag) Time Alt. Az. Time Alt. Az. Time Alt. Az.
21 Oct -0.3 07:37:35 10° SE 07:38:34 11° SE 07:39:32 10° ESE visible
23 Oct -1.7 07:34:49 10° SSW 07:37:48 30° SE 07:40:48 10° ENE visible
24 Oct -1.0 06:47:04 10° S 06:49:23 18° SE 06:51:43 10° E visible
25 Oct -3.7 07:33:53 10° SW 07:37:15 87° SE 07:40:38 10° NE visible
26 Oct -2.9 06:46:50 22° SSW 06:48:43 48° SE 06:51:59 10° ENE visible
